Drone Runway, Panama City, FL, FL

7:52 AM CST on January 21, 2018 (GMT -0600)
Drone Runway, Panama City, FL

Weather History for KTDR - February, 2014

Change the Weather History Date:

Saturday, February 8, 2014

  Actual Average (KPAM) Record (KPAM)
Temperature  
Mean Temperature 54 °F -  
Max Temperature 64 °F 62 °F 73 °F (1999)
Min Temperature 45 °F 45 °F 32 °F (2004)
Degree Days  
Heating Degree Days 12    
Growing Degree Days 4 (Base 50)    
Moisture  
Dew Point 48 °F    
Average Humidity 92    
Maximum Humidity 100    
Minimum Humidity 65    
Precipitation  
Precipitation 0.27 in - - ()
Sea Level Pressure  
Sea Level Pressure 30.16 in    
Wind  
Wind Speed 6 mph (North)    
Max Wind Speed 12 mph    
Max Gust Speed -    
Visibility 6 miles    
Events Fog , Rain    
Averages and records for this station are not official NWS values.
T = Trace of Precipitation, MM = Missing Value Source: NWS Daily Summary

Daily Weather History Graph

Daily Weather History Graph

Search for Another Location

Airport or City:

Trip Planner

Search our weather history database for the weather conditions in past years. The results will help you decide how hot, cold, wet, or windy it might be!

Date:

Astronomy

Feb. 08, 2014 Rise Set
Actual Time 6:27 AM CST 5:25 PM CST
Civil Twilight 6:02 AM CST 5:50 PM CST
Nautical Twilight 5:34 AM CST 6:18 PM CST
Astronomical Twilight 5:06 AM CST 6:46 PM CST
Moon 12:25 PM CST (2/8) 1:33 AM CST (2/8)
Length of Visible Light 11h 47m
Length of Day
10h 57m
Waxing Gibbous, 69% of the Moon is Illuminated
Feb 8
Waxing Gibbous
Feb 14
Full
Feb 22
Last Quarter
Mar 1
New
Mar 8
First Quarter

Hourly Weather History & Observations

Time (CST) Temp. Windchill Dew Point Humidity Pressure Visibility Wind Dir Wind Speed Gust Speed Precip Events Conditions
12:55 AM 49.3 °F - 41.4 °F 74% 30.16 in 10.0 mi North - - N/A   Mostly Cloudy
12:56 AM 49.3 °F - 41.4 °F 74% 30.17 in 12.0 mi North - - N/A   Mostly Cloudy
1:09 AM 50.0 °F - 42.8 °F 76% 30.16 in 12.0 mi NNE 9.2 mph - N/A   Mostly Cloudy
1:55 AM 49.3 °F - 42.4 °F 77% 30.17 in 10.0 mi NNE 8.1 mph - N/A   Mostly Cloudy
1:56 AM 49.3 °F - 42.4 °F 77% 30.17 in 12.0 mi NNE 8.1 mph - N/A   Mostly Cloudy
2:02 AM 50.0 °F - 42.8 °F 76% 30.16 in 12.0 mi NNE 6.9 mph - N/A   Mostly Cloudy
2:11 AM 50.0 °F - 42.8 °F 76% 30.16 in 12.0 mi NNE 9.2 mph - N/A Rain Light Rain
2:55 AM 47.5 °F - 43.7 °F 87% 30.14 in 10.0 mi NE 6.9 mph - 0.01 in Rain Light Rain
2:56 AM 47.5 °F - 43.9 °F 87% 30.14 in 12.0 mi NE 6.9 mph - 0.01 in Rain Light Rain
3:55 AM 46.9 °F - 45.1 °F 93% 30.17 in 6.0 mi NNW 6.9 mph - 0.06 in Rain Rain Showers
3:56 AM 46.9 °F - 45.1 °F 93% 30.18 in 6.0 mi NNW 6.9 mph - 0.06 in Rain Rain Showers
4:34 AM 48.2 °F - 46.4 °F 93% 30.17 in 12.0 mi North 8.1 mph - N/A   Mostly Cloudy
4:35 AM 48.2 °F - 46.4 °F 93% 30.17 in 11.0 mi North 8.1 mph - N/A Rain Light Rain Showers
4:55 AM 47.3 °F - 45.7 °F 94% 30.17 in 9.0 mi NNE 8.1 mph - 0.02 in Rain Light Rain Showers
4:56 AM 47.3 °F - 45.7 °F 94% 30.18 in 9.0 mi NNE 8.1 mph - 0.02 in Rain Light Rain Showers
5:02 AM 46.4 °F 41.5 °F 46.4 °F 100% 30.16 in 9.0 mi NE 10.4 mph - N/A Rain Light Rain Showers
5:20 AM 46.4 °F 43.5 °F 46.4 °F 100% 30.18 in 4.0 mi NNE 5.8 mph - N/A Rain Rain Showers
5:42 AM 46.4 °F 41.5 °F 46.4 °F 100% 30.18 in 5.0 mi North 10.4 mph - N/A Rain Rain
5:55 AM 47.1 °F - 46.6 °F 98% 30.17 in 5.0 mi NNE 11.5 mph - 0.09 in Rain Light Rain Showers
5:56 AM 47.1 °F - 46.6 °F 98% 30.18 in 6.0 mi NNE 11.5 mph - 0.09 in Rain Light Rain Showers
6:03 AM 48.2 °F - 46.4 °F 93% 30.18 in 5.0 mi NNE 9.2 mph - N/A Rain Light Rain Showers
6:20 AM 46.4 °F 45.2 °F 46.4 °F 100% 30.18 in 4.0 mi NE 3.5 mph - N/A Rain Light Rain Showers
6:28 AM 48.2 °F - 46.4 °F 93% 30.20 in 3.0 mi NNE 5.8 mph - N/A Rain Rain Showers
6:32 AM 48.2 °F - 46.4 °F 93% 30.20 in 2.8 mi NNE 3.5 mph - N/A Rain Rain Showers
6:47 AM 46.4 °F 43.5 °F 46.4 °F 100% 30.19 in 3.0 mi NNE 5.8 mph - N/A Rain Rain Showers
6:55 AM 47.3 °F - 46.9 °F 99% 30.20 in 4.0 mi NNE 6.9 mph - 0.08 in Rain Light Rain Showers
6:56 AM 47.3 °F - 46.9 °F 99% 30.21 in 4.0 mi NNE 6.9 mph - 0.08 in Rain Light Rain Showers
7:05 AM 48.2 °F - 48.2 °F 100% 30.20 in 5.0 mi NNE 8.1 mph - N/A Rain Light Rain Showers
7:09 AM 48.2 °F - 46.4 °F 93% 30.18 in 4.0 mi NE 9.2 mph - N/A Rain Light Rain Showers
7:17 AM 48.2 °F - 46.4 °F 93% 30.18 in 3.0 mi NE 6.9 mph - N/A Rain Light Rain
7:31 AM 48.2 °F - 48.2 °F 100% 30.18 in 5.0 mi North 8.1 mph - N/A Rain Light Rain
7:43 AM 48.2 °F - 48.2 °F 100% 30.19 in 5.0 mi North 8.1 mph - N/A Rain Light Rain
7:55 AM 48.6 °F - 48.2 °F 99% 30.19 in 6.0 mi NNE 8.1 mph - 0.01 in Rain Light Rain
7:56 AM 48.6 °F - 48.2 °F 99% 30.20 in 6.0 mi NNE 8.1 mph - 0.01 in Rain Light Rain
8:01 AM 48.2 °F - 48.2 °F 100% 30.19 in 6.0 mi NNE 9.2 mph - N/A   Mostly Cloudy
8:55 AM 50.4 °F - 49.6 °F 97% 30.21 in 10.0 mi NNE 5.8 mph - N/A   Mostly Cloudy
8:56 AM 50.4 °F - 49.6 °F 97% 30.22 in 10.0 mi NNE 5.8 mph - N/A   Mostly Cloudy
9:17 AM 51.8 °F - 51.8 °F 100% 30.21 in 12.0 mi NE 4.6 mph - N/A   Mostly Cloudy
9:48 AM 55.4 °F - 53.6 °F 94% 30.21 in 12.0 mi North 6.9 mph - N/A   Mostly Cloudy
9:55 AM 55.0 °F - 50.9 °F 86% 30.21 in 10.0 mi North 6.9 mph - N/A   Mostly Cloudy
9:56 AM 55.2 °F - 52.2 °F 89% 30.22 in 12.0 mi North 6.9 mph - N/A   Mostly Cloudy
10:55 AM 56.8 °F - 51.4 °F 82% 30.20 in 10.0 mi North 5.8 mph - N/A   Scattered Clouds
10:56 AM 56.8 °F - 51.4 °F 82% 30.21 in 12.0 mi North 4.6 mph - N/A   Scattered Clouds
11:55 AM 59.5 °F - 50.5 °F 72% 30.17 in 10.0 mi North 5.8 mph - N/A   Overcast
11:56 AM 59.5 °F - 50.5 °F 72% 30.18 in 12.0 mi Variable 6.9 mph - N/A   Overcast
12:55 PM 62.1 °F - 50.4 °F 65% 30.12 in 10.0 mi North 3.5 mph - N/A   Clear
12:56 PM 62.1 °F - 50.4 °F 65% 30.13 in 12.0 mi North 4.6 mph - N/A   Clear
1:55 PM 60.1 °F - 52.0 °F 75% 30.09 in 10.0 mi WSW 5.8 mph - N/A   Clear
1:56 PM 59.9 °F - 52.0 °F 75% 30.10 in 12.0 mi SW 4.6 mph - N/A   Clear
2:55 PM 60.1 °F - 51.8 °F 74% 30.09 in 10.0 mi WSW 5.8 mph - N/A   Clear
2:56 PM 60.1 °F - 51.8 °F 74% 30.10 in 12.0 mi WSW 5.8 mph - N/A   Clear
3:55 PM 58.6 °F - 51.8 °F 78% 30.10 in 10.0 mi Variable 6.9 mph - N/A   Clear
4:55 PM 56.3 °F - 51.8 °F 85% 30.11 in 10.0 mi West 6.9 mph - N/A   Clear
4:56 PM 56.3 °F - 51.8 °F 85% 30.12 in 12.0 mi West 8.1 mph - N/A   Clear
5:55 PM 54.0 °F - 51.4 °F 91% 30.13 in 10.0 mi West 2.3 mph - N/A   Clear
5:56 PM 54.0 °F - 51.4 °F 91% 30.14 in 12.0 mi West 2.3 mph - N/A   Clear
6:55 PM 50.9 °F - 50.7 °F 99% 30.14 in 7.0 mi Calm Calm - N/A   Clear
6:56 PM 50.9 °F - 50.7 °F 99% 30.15 in 7.0 mi Calm Calm - N/A   Clear
7:55 PM 49.3 °F - 49.1 °F 99% 30.13 in 6.0 mi NNE 1.2 mph - N/A   Clear
7:56 PM 49.3 °F - 48.9 °F 99% 30.14 in 6.0 mi NNE 1.2 mph - N/A   Clear
8:05 PM 50.0 °F - 48.2 °F 94% 30.13 in 2.5 mi North 1.2 mph - N/A   Clear
8:07 PM 48.2 °F - 48.2 °F 100% 30.14 in 1.4 mi North 1.2 mph - N/A   Clear
8:17 PM 48.2 °F - 48.2 °F 100% 30.14 in 9.0 mi North 2.3 mph - N/A   Clear
8:38 PM 48.2 °F - 48.2 °F 100% 30.14 in 4.0 mi Calm Calm - N/A   Clear
8:40 PM 48.2 °F - 48.2 °F 100% 30.14 in 1.8 mi Calm Calm - N/A   Clear
8:52 PM - - - N/A% 30.14 in 5.0 mi NW 2.3 mph - N/A   Clear
8:55 PM 49.1 °F - 49.1 °F 100% 30.14 in 5.0 mi NW 2.3 mph - N/A   Clear
8:56 PM 49.1 °F - 49.1 °F 100% 30.15 in 5.0 mi WNW 2.3 mph - N/A   Clear
9:01 PM - - - N/A% 30.14 in 4.0 mi NNW 2.3 mph - N/A   Clear
9:03 PM 48.2 °F - 48.2 °F 100% 30.14 in 1.4 mi NNW 2.3 mph - N/A   Clear
9:05 PM 48.2 °F - 48.2 °F 100% 30.14 in 1.0 mi NNW 2.3 mph - N/A   Clear
9:11 PM 48.2 °F - 48.2 °F 100% 30.14 in 1.1 mi NW 1.2 mph - N/A   Clear
9:13 PM 48.2 °F - 48.2 °F 100% 30.14 in 2.2 mi NW 1.2 mph - N/A   Clear
9:15 PM 48.2 °F - 48.2 °F 100% 30.14 in 7.0 mi Variable 1.2 mph - N/A   Clear
9:21 PM 48.2 °F - 48.2 °F 100% 30.14 in 2.5 mi NW 1.2 mph - N/A   Clear
9:22 PM 48.2 °F - 48.2 °F 100% 30.14 in 1.4 mi NW 1.2 mph - N/A   Clear
9:24 PM 48.2 °F - 46.4 °F 93% 30.14 in 0.8 mi NW 1.2 mph - N/A   Clear
9:55 PM 46.9 °F - 47.3 °F 100% 30.14 in 0.8 mi SW 1.2 mph - N/A   Clear
9:56 PM - - - N/A% 30.15 in 0.8 mi Calm Calm - N/A Fog Patches of Fog
9:57 PM - - - N/A% 30.14 in 1.9 mi Calm Calm - N/A Fog Patches of Fog
9:59 PM 48.2 °F - 48.2 °F 100% 30.14 in 12.0 mi Calm Calm - N/A Fog Patches of Fog
10:10 PM - - - N/A% 30.14 in 0.9 mi SSW 1.2 mph - N/A Fog Patches of Fog
10:26 PM 46.4 °F - 46.4 °F 100% 30.14 in 0.3 mi SSE 1.2 mph - N/A Fog Patches of Fog
10:55 PM 46.4 °F - 46.0 °F 99% 30.15 in 0.2 mi SW 1.2 mph - N/A Fog Fog
10:56 PM 46.6 °F - 46.2 °F 99% 30.17 in 0.1 mi SW 1.2 mph - N/A Fog Fog
10:57 PM 46.4 °F - 46.4 °F 100% 30.15 in 0.1 mi SSW 1.2 mph - N/A Fog Fog
11:07 PM 46.4 °F - 46.4 °F 100% 30.14 in 0.2 mi Calm Calm - N/A Fog Fog
11:17 PM 46.4 °F - 46.4 °F 100% 30.14 in 0.6 mi Calm Calm - N/A Fog Patches of Fog
11:19 PM 46.4 °F - 46.4 °F 100% 30.14 in 3.0 mi Calm Calm - N/A Fog Patches of Fog
11:21 PM 46.4 °F - 46.4 °F 100% 30.14 in 12.0 mi Calm Calm - N/A Fog Patches of Fog
11:31 PM - - - N/A% 30.14 in 1.9 mi North 1.2 mph - N/A Fog Patches of Fog
11:33 PM 46.4 °F - 46.4 °F 100% 30.14 in 0.8 mi North 1.2 mph - N/A   Mist
11:55 PM 45.9 °F - 46.0 °F 100% 30.14 in 0.2 mi NNE 1.2 mph - N/A Fog Fog
11:56 PM 45.9 °F - 46.0 °F 100% 30.14 in 0.1 mi North 1.2 mph - N/A Fog Fog